Flagstaff, AZ

3:28 AM MST on May 25, 2017 (GMT -0700)
Flagstaff Pulliam

Weather History for KFLG - October, 2011

Change the Weather History Date:

Monday, October 24, 2011

  Actual Average Record
Temperature  
Mean Temperature 49 °F 44 °F  
Max Temperature 68 °F 59 °F 79 °F (1959)
Min Temperature 29 °F 29 °F 9 °F (1975)
Degree Days  
Heating Degree Days 16 21  
Month to date heating degree days 393 411  
Since 1 July heating degree days 599 728  
Cooling Degree Days 0 0  
Month to date cooling degree days 0 0  
Year to date cooling degree days 170 117  
Moisture  
Dew Point 24 °F    
Average Humidity 48    
Maximum Humidity 78    
Minimum Humidity 17    
Precipitation  
Precipitation 0.00 in 0.04 in 2.42 in (1992)
Month to date precipitation 1.68 1.29  
Year to date precipitation 16.38 17.86  
Snow  
Snow 0.00 in 0.00 in 1.00 in (1920)
Month to date snowfall T 0.8  
Since 1 July snowfall T 0.8  
Snow Depth 0.00 in    
Sea Level Pressure  
Sea Level Pressure 30.10 in    
Wind  
Wind Speed 6 mph (SW)    
Max Wind Speed 24 mph    
Max Gust Speed 30 mph    
Visibility 10 miles    
Events      
T = Trace of Precipitation, MM = Missing Value Source: NWS Daily Summary

Daily Weather History Graph

Daily Weather History Graph

Search for Another Location

Airport or City:

Trip Planner

Search our weather history database for the weather conditions in past years. The results will help you decide how hot, cold, wet, or windy it might be!

Date:

Astronomy

Oct. 24, 2011 Rise Set
Actual Time 6:40 AM MST 5:40 PM MST
Civil Twilight 6:14 AM MST 6:06 PM MST
Nautical Twilight 5:44 AM MST 6:36 PM MST
Astronomical Twilight 5:15 AM MST 7:05 PM MST
Moon 4:07 AM MST (10/24) 4:05 PM MST (10/24)
Length of Visible Light 11h 52m
Length of Day
11h 00m
Waning Crescent, 6% of the Moon is Illuminated
Oct 24
Waning Crescent
Oct 26
New
Nov 2
First Quarter
Nov 10
Full
Nov 18
Last Quarter

Hourly Weather History & Observations

Time (MST) Temp. Dew Point Humidity Pressure Visibility Wind Dir Wind Speed Gust Speed Precip Events Conditions
12:57 AM 35.1 °F 23.0 °F 61% 30.12 in 10.0 mi Calm Calm - N/A   Clear
1:57 AM 34.0 °F 23.0 °F 64% 30.10 in 10.0 mi Calm Calm - N/A   Clear
2:57 AM 33.1 °F 23.0 °F 66% 30.08 in 10.0 mi Calm Calm - N/A   Clear
3:57 AM 30.9 °F 23.0 °F 72% 30.09 in 10.0 mi Calm Calm - N/A   Clear
4:57 AM 30.0 °F 23.0 °F 75% 30.11 in 10.0 mi Calm Calm - N/A   Clear
5:57 AM 30.9 °F 23.0 °F 72% 30.15 in 10.0 mi Calm Calm - N/A   Clear
6:57 AM 30.9 °F 24.1 °F 76% 30.18 in 10.0 mi Calm Calm - N/A   Clear
7:57 AM 45.0 °F 28.9 °F 53% 30.15 in 10.0 mi Calm Calm - N/A   Clear
8:57 AM 57.0 °F 25.0 °F 29% 30.13 in 10.0 mi SW 8.1 mph - N/A   Clear
9:57 AM 63.0 °F 27.0 °F 26% 30.11 in 10.0 mi SW 12.7 mph - N/A   Clear
10:57 AM 64.0 °F 24.1 °F 22% 30.11 in 10.0 mi WSW 16.1 mph 21.9 mph N/A   Clear
11:57 AM 66.9 °F 23.0 °F 19% 30.10 in 10.0 mi SW 20.7 mph 25.3 mph N/A   Clear
12:57 PM 66.2 °F 21.2 °F 18% 30.27 in 10.0 mi WSW 11.5 mph 28.8 mph N/A   Partly Cloudy
1:57 PM 68.0 °F 21.0 °F 17% 30.05 in 10.0 mi West 6.9 mph 18.4 mph N/A   Clear
2:57 PM 64.9 °F 21.0 °F 19% 30.06 in 10.0 mi WSW 12.7 mph 20.7 mph N/A   Overcast
3:57 PM 64.9 °F 21.9 °F 19% 30.07 in 10.0 mi West 11.5 mph 21.9 mph N/A   Overcast
4:57 PM 63.0 °F 21.9 °F 21% 30.08 in 10.0 mi WSW 10.4 mph - N/A   Overcast
5:57 PM 60.1 °F 23.0 °F 24% 30.09 in 10.0 mi WSW 6.9 mph - N/A   Scattered Clouds
6:57 PM 55.9 °F 23.0 °F 28% 30.11 in 10.0 mi WSW 4.6 mph - N/A   Mostly Cloudy
7:57 PM 55.9 °F 24.1 °F 29% 30.06 in 10.0 mi SW 3.5 mph - N/A   Overcast
8:57 PM 53.1 °F 24.1 °F 32% 30.05 in 10.0 mi SSW 3.5 mph - N/A   Overcast
9:57 PM 53.1 °F 25.0 °F 34% 30.03 in 10.0 mi SW 3.5 mph - N/A   Overcast
10:57 PM 52.0 °F 27.0 °F 38% 30.02 in 10.0 mi SSW 3.5 mph - N/A   Overcast
11:57 PM 50.0 °F 27.0 °F 41% 30.00 in 10.0 mi Calm Calm - N/A   Mostly Cloudy